Location: Berlin
(42.3812°N, 71.6370°W)
Time: 11:42:36
(UTC+00:00)

Cosmos 1943 - Pass Details

Date: 24 February 2026
Orbit: 830 x 850 km, 71.0° (Epoch: 8 March)

Event Time Altitude Azimuth Distance (km) Brightness Sun altitude
Rises 23:56:04 0° 331° (NNW) 3,422 6.8 -16.8°
Reaches altitude 10° 23:58:34 10° 327° (NNW) 2,481 6.1 -17.2°
Maximum altitude 00:04:07 55° 251° (WSW) 1,012 3.9 -18.3°
Drops below altitude 10° 00:09:36 10° 175° (S) 2,455 5.5 -19.3°
Sets 00:12:04 0° 171° (S) 3,383 6.2 -19.7°
